Regional Weather Roundup
Issued by NWS

Home | Current Version | Previous Version | Graphics & Text | Print | Product List | Glossary On
Versions: 1 2 3 4 5 6 7 8 9 10 11 12 13 14 15 16 17 18 19 20 21 22 23 24 25 26 27 28 29 30 31 32 33 34 35 36 37 38 39 40 41 42 43 44 45 46 47 48 49 50
000
ASUS44 KMEG 160400
RWRTN
TENNESSEE HOURLY STATE WEATHER ROUNDUP
NATIONAL WEATHER SERVICE MEMPHIS TN
1100 PM CDT MON SEP 15 2014

TNZ002-004-019-021-049-052-054-088>092-160500-
WEST TENNESSEE

CITY           SKY/WX    TMP DP  RH WIND       PRES   REMARKS
MEMPHIS INTL   CLOUDY    74  65  73 SW5       30.13S
NWS MEMPHIS      N/A     71 N/A N/A MISG        N/A
JACKSON        MOCLDY    67  65  93 CALM      30.12S
DYERSBURG      CLEAR     66  55  68 CALM      30.12S
PARIS          PTCLDY    61  59  94 CALM      30.12S
SAVANNAH       CLEAR     66  66 100 CALM      30.13F
$$

TNZ008-025-027-028-033-062-065-066-160500-
NORTH MIDDLE TENNESSEE

CITY           SKY/WX    TMP DP  RH WIND       PRES   REMARKS
NASHVILLE      MOCLDY    66  63  90 CALM      30.12S
CLARKSVILLE    PTCLDY    64  61  90 S3        30.11S
COOKEVILLE     MOCLDY    64  64 100 CALM      30.14R
CROSSVILLE     PTCLDY    65  62  90 CALM      30.18S
$$

TNZ061-075-076-078-094-096-097-160500-
SOUTH MIDDLE TENNESSEE

CITY           SKY/WX    TMP DP  RH WIND       PRES   REMARKS
FAYETTEVILLE   CLEAR     70  66  88 MISG      30.14S
WINCHESTER     CLEAR     70  66  88 CALM      30.15R
SHELBYVILLE    CLEAR     66  66 100 CALM      30.14S
$$

TNZ017-018-042-046-047-160500-
NORTHEAST TENNESSEE

CITY           SKY/WX    TMP DP  RH WIND       PRES   REMARKS
TRI CITIES     MOCLDY    64  62  93 CALM      30.15F FOG
ELIZABETHTON   CLEAR     61  59  94 CALM      30.17S
$$

TNZ012-013-036-069-073-074-160500-
CENTRAL EAST TENNESSEE

CITY           SKY/WX    TMP DP  RH WIND       PRES   REMARKS
KNOXVILLE      CLOUDY    71  68  90 CALM      30.14R
OAK RIDGE      FOG       68  67  96 CALM      30.16R VSB 1/4
GATLINBURG     PTCLDY    68  66  94 CALM      30.15R
$$

TNZ083-085-099-160500-
SOUTHEAST TENNESSEE

CITY           SKY/WX    TMP DP  RH WIND       PRES   REMARKS
CHATTANOOGA    MOCLDY    72  69  90 CALM      30.15R
$$

SKY/WX REPORTED AS FAIR MEANS FEW OR NO CLOUDS BELOW
12 THOUSAND FEET.




USA.gov is the U.S. government's official web portal to all federal, state and local government web resources and services.